Time,TemperatureF,DewpointF,PressureIn,WindDirection,WindDirectionDegrees,WindSpeedMPH,WindSpeedGustMPH,Humidity,HourlyPrecipIn,Conditions,Clouds,dailyrainin,SoftwareType,DateUTC
2013-01-19 00:03:00,41.0,-99.9,-100.00,North,-999,-999.0,-999.0,-999,-99.99,,,-99.99,,2013-01-19 06:03:00,
2013-01-19 00:12:00,42.0,-99.9,30.41,North,-999,-999.0,-999.0,-999,-99.99,,,-99.99,,2013-01-19 06:12:00,
2013-01-19 00:23:00,41.0,-99.9,30.40,North,-999,-999.0,-999.0,-999,-99.99,,,-99.99,,2013-01-19 06:23:00,
2013-01-19 00:33:00,41.0,-99.9,-100.00,North,-999,-999.0,-999.0,-999,-99.99,,,-99.99,,2013-01-19 06:33:00,
2013-01-19 00:43:00,41.0,-99.9,30.40,North,-999,-999.0,-999.0,-999,-99.99,,,-99.99,,2013-01-19 06:43:00,
2013-01-19 01:12:00,41.0,-99.9,30.40,North,-999,-999.0,-999.0,-999,-99.99,,,-99.99,,2013-01-19 07:12:00,
2013-01-19 01:23:00,40.0,-99.9,-100.00,North,-999,-999.0,-999.0,-999,-99.99,,,-99.99,,2013-01-19 07:23:00,
2013-01-19 01:33:00,41.0,-99.9,-100.00,North,-999,-999.0,-999.0,-999,-99.99,,,-99.99,,2013-01-19 07:33:00,
2013-01-19 01:43:00,41.0,-99.9,30.40,North,-999,-999.0,-999.0,-999,-99.99,,,-99.99,,2013-01-19 07:43:00,
2013-01-19 02:03:00,41.0,-99.9,-100.00,North,-999,-999.0,-999.0,-999,-99.99,,,-99.99,,2013-01-19 08:03:00,
2013-01-19 02:12:00,41.0,-99.9,30.39,North,-999,-999.0,-999.0,-999,-99.99,,,-99.99,,2013-01-19 08:12:00,
2013-01-19 02:23:00,40.0,-99.9,-100.00,North,-999,-999.0,-999.0,-999,-99.99,,,-99.99,,2013-01-19 08:23:00,
2013-01-19 02:53:00,40.0,-99.9,30.39,North,-999,-999.0,-999.0,-999,-99.99,,,-99.99,,2013-01-19 08:53:00,
2013-01-19 03:12:00,40.0,-99.9,30.39,North,-999,-999.0,-999.0,-999,-99.99,,,-99.99,,2013-01-19 09:12:00,
2013-01-19 03:23:00,40.0,-99.9,-100.00,North,-999,-999.0,-999.0,-999,-99.99,,,-99.99,,2013-01-19 09:23:00,
2013-01-19 03:33:00,39.0,-99.9,-100.00,North,-999,-999.0,-999.0,-999,-99.99,,,-99.99,,2013-01-19 09:33:00,
2013-01-19 03:43:00,40.0,-99.9,30.38,North,-999,-999.0,-999.0,-999,-99.99,,,-99.99,,2013-01-19 09:43:00,
2013-01-19 03:53:00,39.0,-99.9,-100.00,North,-999,-999.0,-999.0,-999,-99.99,,,-99.99,,2013-01-19 09:53:00,
2013-01-19 04:13:00,39.0,-99.9,30.38,North,-999,-999.0,-999.0,-999,-99.99,,,-99.99,,2013-01-19 10:13:00,
2013-01-19 04:23:00,39.0,-99.9,-100.00,North,-999,-999.0,-999.0,-999,-99.99,,,-99.99,,2013-01-19 10:23:00,
2013-01-19 04:33:00,39.0,-99.9,-100.00,North,-999,-999.0,-999.0,-999,-99.99,,,-99.99,,2013-01-19 10:33:00,
2013-01-19 04:43:00,39.0,-99.9,-100.00,North,-999,-999.0,-999.0,-999,-99.99,,,-99.99,,2013-01-19 10:43:00,
2013-01-19 04:53:00,39.0,-99.9,-100.00,North,-999,-999.0,-999.0,-999,-99.99,,,-99.99,,2013-01-19 10:53:00,
2013-01-19 05:12:00,40.0,-99.9,30.37,North,-999,-999.0,-999.0,-999,-99.99,,,-99.99,,2013-01-19 11:12:00,
2013-01-19 05:48:00,37.0,-99.9,30.36,North,-999,-999.0,-999.0,-999,-99.99,,,-99.99,,2013-01-19 11:48:00,
2013-01-19 06:53:00,37.0,-99.9,30.36,North,-999,-999.0,-999.0,-999,-99.99,,,-99.99,,2013-01-19 12:53:00,
2013-01-19 07:03:00,37.0,-99.9,30.36,North,-999,-999.0,-999.0,-999,-99.99,,,-99.99,,2013-01-19 13:03:00,
2013-01-19 07:13:00,37.0,-99.9,30.36,North,-999,-999.0,-999.0,-999,-99.99,,,-99.99,,2013-01-19 13:13:00,
2013-01-19 07:34:00,36.0,-99.9,30.36,North,-999,-999.0,-999.0,-999,-99.99,,,-99.99,,2013-01-19 13:34:00,
2013-01-19 07:43:00,36.0,-99.9,30.36,North,-999,-999.0,-999.0,-999,-99.99,,,-99.99,,2013-01-19 13:43:00,
2013-01-19 07:54:00,37.0,-99.9,-100.00,North,-999,-999.0,-999.0,-999,-99.99,,,-99.99,,2013-01-19 13:54:00,
2013-01-19 08:13:00,39.0,-99.9,30.36,North,-999,-999.0,-999.0,-999,-99.99,,,-99.99,,2013-01-19 14:13:00,
2013-01-19 09:04:00,42.0,-99.9,-100.00,North,-999,-999.0,-999.0,-999,-99.99,,,-99.99,,2013-01-19 15:04:00,
2013-01-19 09:13:00,43.0,-99.9,30.37,North,-999,-999.0,-999.0,-999,-99.99,,,-99.99,,2013-01-19 15:13:00,
2013-01-19 09:24:00,45.0,-99.9,-100.00,North,-999,-999.0,-999.0,-999,-99.99,,,-99.99,,2013-01-19 15:24:00,
2013-01-19 09:43:00,48.0,-99.9,30.38,North,-999,-999.0,-999.0,-999,-99.99,,,-99.99,,2013-01-19 15:43:00,
2013-01-19 10:23:00,50.0,-99.9,30.38,North,-999,-999.0,-999.0,-999,-99.99,,,-99.99,,2013-01-19 16:23:00,
2013-01-19 10:43:00,52.0,-99.9,-100.00,North,-999,-999.0,-999.0,-999,-99.99,,,-99.99,,2013-01-19 16:43:00,
2013-01-19 10:54:00,52.0,-99.9,30.38,North,-999,-999.0,-999.0,-999,-99.99,,,-99.99,,2013-01-19 16:54:00,
2013-01-19 11:23:00,55.0,-99.9,30.38,North,-999,-999.0,-999.0,-999,-99.99,,,-99.99,,2013-01-19 17:23:00,
2013-01-19 11:50:00,56.0,-99.9,30.36,North,-999,-999.0,-999.0,-999,-99.99,,,-99.99,,2013-01-19 17:50:00,
2013-01-19 12:13:00,56.0,-99.9,-100.00,North,-999,-999.0,-999.0,-999,-99.99,,,-99.99,,2013-01-19 18:13:00,
2013-01-19 12:29:00,55.0,-99.9,30.33,North,-999,-999.0,-999.0,-999,-99.99,,,-99.99,,2013-01-19 18:29:00,
2013-01-19 13:04:00,57.0,-99.9,30.31,North,-999,-999.0,-999.0,-999,-99.99,,,-99.99,,2013-01-19 19:04:00,
2013-01-19 13:15:00,57.0,-99.9,-100.00,North,-999,-999.0,-999.0,-999,-99.99,,,-99.99,,2013-01-19 19:15:00,
2013-01-19 13:41:00,58.0,-99.9,-100.00,North,-999,-999.0,-999.0,-999,-99.99,,,-99.99,,2013-01-19 19:41:00,
2013-01-19 13:50:00,58.0,-99.9,30.27,North,-999,-999.0,-999.0,-999,-99.99,,,-99.99,,2013-01-19 19:50:00,
2013-01-19 13:59:00,58.0,-99.9,30.27,North,-999,-999.0,-999.0,-999,-99.99,,,-99.99,,2013-01-19 19:59:00,
2013-01-19 14:28:00,60.0,-99.9,30.26,North,-999,-999.0,-999.0,-999,-99.99,,,-99.99,,2013-01-19 20:28:00,
2013-01-19 14:40:00,60.0,-99.9,-100.00,North,-999,-999.0,-999.0,-999,-99.99,,,-99.99,,2013-01-19 20:40:00,
2013-01-19 14:59:00,61.0,-99.9,30.25,North,-999,-999.0,-999.0,-999,-99.99,,,-99.99,,2013-01-19 20:59:00,
2013-01-19 15:12:00,61.0,-99.9,-100.00,North,-999,-999.0,-999.0,-999,-99.99,,,-99.99,,2013-01-19 21:12:00,
2013-01-19 15:30:00,61.0,-99.9,30.24,North,-999,-999.0,-999.0,-999,-99.99,,,-99.99,,2013-01-19 21:30:00,
2013-01-19 16:02:00,62.0,-99.9,30.24,North,-999,-999.0,-999.0,-999,-99.99,,,-99.99,,2013-01-19 22:02:00,
2013-01-19 16:16:00,62.0,-99.9,30.24,North,-999,-999.0,-999.0,-999,-99.99,,,-99.99,,2013-01-19 22:16:00,
2013-01-19 16:22:00,62.0,-99.9,-100.00,North,-999,-999.0,-999.0,-999,-99.99,,,-99.99,,2013-01-19 22:22:00,
2013-01-19 16:29:00,61.0,-99.9,30.24,North,-999,-999.0,-999.0,-999,-99.99,,,-99.99,,2013-01-19 22:29:00,
2013-01-19 16:37:00,61.0,-99.9,-100.00,North,-999,-999.0,-999.0,-999,-99.99,,,-99.99,,2013-01-19 22:37:00,
2013-01-19 16:49:00,62.0,-99.9,30.24,North,-999,-999.0,-999.0,-999,-99.99,,,-99.99,,2013-01-19 22:49:00,
2013-01-19 17:29:00,61.0,-99.9,30.24,North,-999,-999.0,-999.0,-999,-99.99,,,-99.99,,2013-01-19 23:29:00,
2013-01-19 17:36:00,60.0,-99.9,-100.00,North,-999,-999.0,-999.0,-999,-99.99,,,-99.99,,2013-01-19 23:36:00,
2013-01-19 18:08:00,59.0,-99.9,30.25,North,-999,-999.0,-999.0,-999,-99.99,,,-99.99,,2013-01-20 00:08:00,
2013-01-19 18:17:00,58.0,-99.9,30.25,North,-999,-999.0,-999.0,-999,-99.99,,,-99.99,,2013-01-20 00:17:00,
2013-01-19 18:48:00,56.0,-99.9,30.26,North,-999,-999.0,-999.0,-999,-99.99,,,-99.99,,2013-01-20 00:48:00,
2013-01-19 18:59:00,55.0,-99.9,-100.00,North,-999,-999.0,-999.0,-999,-99.99,,,-99.99,,2013-01-20 00:59:00,
2013-01-19 19:05:00,55.0,-99.9,-100.00,North,-999,-999.0,-999.0,-999,-99.99,,,-99.99,,2013-01-20 01:05:00,
2013-01-19 19:22:00,54.0,-99.9,30.26,North,-999,-999.0,-999.0,-999,-99.99,,,-99.99,,2013-01-20 01:22:00,
2013-01-19 19:29:00,54.0,-99.9,-100.00,North,-999,-999.0,-999.0,-999,-99.99,,,-99.99,,2013-01-20 01:29:00,
2013-01-19 19:40:00,54.0,-99.9,-100.00,North,-999,-999.0,-999.0,-999,-99.99,,,-99.99,,2013-01-20 01:40:00,
2013-01-19 20:05:00,53.0,-99.9,30.27,North,-999,-999.0,-999.0,-999,-99.99,,,-99.99,,2013-01-20 02:05:00,
2013-01-19 20:10:00,52.0,-99.9,-100.00,North,-999,-999.0,-999.0,-999,-99.99,,,-99.99,,2013-01-20 02:10:00,
2013-01-19 20:15:00,52.0,-99.9,30.27,North,-999,-999.0,-999.0,-999,-99.99,,,-99.99,,2013-01-20 02:15:00,
2013-01-19 20:28:00,51.0,-99.9,-100.00,North,-999,-999.0,-999.0,-999,-99.99,,,-99.99,,2013-01-20 02:28:00,
2013-01-19 21:10:00,52.0,-99.9,-100.00,North,-999,-999.0,-999.0,-999,-99.99,,,-99.99,,2013-01-20 03:10:00,
2013-01-19 21:27:00,51.0,-99.9,30.28,North,-999,-999.0,-999.0,-999,-99.99,,,-99.99,,2013-01-20 03:27:00,
2013-01-19 21:40:00,51.0,-99.9,-100.00,North,-999,-999.0,-999.0,-999,-99.99,,,-99.99,,2013-01-20 03:40:00,
2013-01-19 21:48:00,51.0,-99.9,30.29,North,-999,-999.0,-999.0,-999,-99.99,,,-99.99,,2013-01-20 03:48:00,
2013-01-19 21:59:00,51.0,-99.9,-100.00,North,-999,-999.0,-999.0,-999,-99.99,,,-99.99,,2013-01-20 03:59:00,
2013-01-19 22:15:00,51.0,-99.9,30.28,North,-999,-999.0,-999.0,-999,-99.99,,,-99.99,,2013-01-20 04:15:00,
2013-01-19 22:45:00,50.0,-99.9,30.29,North,-999,-999.0,-999.0,-999,-99.99,,,-99.99,,2013-01-20 04:45:00,
2013-01-19 23:01:00,50.0,-99.9,-100.00,North,-999,-999.0,-999.0,-999,-99.99,,,-99.99,,2013-01-20 05:01:00,
2013-01-19 23:12:00,49.0,-99.9,30.28,North,-999,-999.0,-999.0,-999,-99.99,,,-99.99,,2013-01-20 05:12:00,
2013-01-19 23:23:00,49.0,-99.9,30.29,North,-999,-999.0,-999.0,-999,-99.99,,,-99.99,,2013-01-20 05:23:00,
2013-01-19 23:33:00,49.0,-99.9,-100.00,North,-999,-999.0,-999.0,-999,-99.99,,,-99.99,,2013-01-20 05:33:00,
2013-01-19 23:43:00,49.0,-99.9,-100.00,North,-999,-999.0,-999.0,-999,-99.99,,,-99.99,,2013-01-20 05:43:00,
2013-01-19 23:53:00,49.0,-99.9,-100.00,North,-999,-999.0,-999.0,-999,-99.99,,,-99.99,,2013-01-20 05:53:00,